contact:dominique.lefevre@mio.osupytheas.fr, maurice.libes@osupytheas.fr, didier.mallarino@osupytheas.fr
Project:EMSO http://www.emso-fr.org/EMSO-France
Depth: 2436.0 m
Title:EMSO Ligure Ouest : Data MII capteur AQUADOPP
Date,Latitude,Longitude,X_East,Y_North,Z_Up,Amplitude_X,Amplitude_Y,Amplitude_Z,Batterie,SoundSpeed,Heading,Pitch,Roll,Pressure,TIS,Speed,Direction
, degrees North, degrees East, m.s-1, m.s-1,m.s-1, 1, 1, 1, Volt, m.s-1, degree, degree, degree, dbar, degree_C, m.s-1, degree
2022-10-21T00:04:03,42.805,6.029,0.011,-0.026,-0.014,103.0,102.0,100.0,13.4,1505.2,333.4,-0.7,1.8,2471.072,13.28,0.028,157.1
2022-10-21T00:07:03,42.805,6.029,0.049,-0.048,-0.027,103.0,102.0,101.0,13.4,1505.2,317.9,-0.8,1.8,2471.068,13.28,0.068,134.4
2022-10-21T00:10:03,42.805,6.029,0.039,-0.059,0.015,103.0,102.0,101.0,13.4,1505.2,332.5,-0.8,1.8,2471.062,13.28,0.07,146.5
2022-10-21T00:13:03,42.805,6.029,0.012,-0.025,-0.034,102.0,102.0,101.0,13.3,1505.2,331.4,-0.8,1.8,2471.046,13.28,0.027,154.4
2022-10-21T00:16:03,42.805,6.029,0.011,-0.052,-0.036,103.0,102.0,101.0,13.4,1505.2,326.8,-0.8,1.8,2471.057,13.28,0.053,168.1
2022-10-21T00:19:03,42.805,6.029,0.029,-0.02,0.003,103.0,103.0,101.0,13.4,1505.2,318.8,-0.8,1.8,2471.069,13.28,0.035,124.6
2022-10-21T00:22:03,42.805,6.029,0.014,-0.039,-0.026,102.0,102.0,101.0,13.4,1505.2,317.1,-0.7,1.8,2471.02,13.28,0.041,160.3
2022-10-21T00:25:03,42.805,6.029,0.002,-0.026,-0.021,103.0,103.0,100.0,13.4,1505.2,321.2,-0.8,1.8,2471.061,13.29,0.026,175.6
2022-10-21T00:28:03,42.805,6.029,0.02,-0.056,-0.028,103.0,101.0,100.0,13.3,1505.2,332.0,-0.7,1.8,2470.998,13.28,0.059,160.4
2022-10-21T00:31:03,42.805,6.029,0.008,-0.043,0.014,102.0,102.0,101.0,13.3,1505.2,331.3,-0.8,1.8,2471.01,13.28,0.043,169.5
2022-10-21T00:34:03,42.805,6.029,0.026,-0.052,-0.011,103.0,103.0,101.0,13.4,1505.2,328.4,-0.7,1.8,2471.047,13.28,0.058,153.4
2022-10-21T00:37:03,42.805,6.029,0.02,-0.042,-0.025,103.0,102.0,101.0,13.4,1505.2,332.5,-0.8,1.8,2471.041,13.29,0.046,154.5
2022-10-21T00:40:03,42.805,6.029,0.01,-0.023,-0.016,103.0,104.0,100.0,13.3,1505.2,323.8,-0.8,1.8,2471.038,13.29,0.025,156.5
2022-10-21T00:43:03,42.805,6.029,-0.001,-0.026,-0.002,102.0,103.0,101.0,13.3,1505.2,334.0,-0.8,1.8,2471.025,13.28,0.026,182.2
2022-10-21T00:46:03,42.805,6.029,0.023,-0.073,-0.046,105.0,103.0,100.0,13.4,1505.2,330.7,-0.7,1.8,2471.054,13.29,0.076,162.5
2022-10-21T00:49:03,42.805,6.029,-0.007,-0.035,0.0,101.0,103.0,102.0,13.3,1505.2,323.9,-0.8,1.8,2471.03,13.29,0.035,191.3
2022-10-21T00:52:03,42.805,6.029,0.015,-0.037,0.001,103.0,102.0,100.0,13.4,1505.2,320.9,-0.8,1.9,2471.036,13.29,0.039,157.9
2022-10-21T00:55:03,42.805,6.029,0.02,-0.056,0.0,102.0,102.0,101.0,13.4,1505.2,329.5,-0.8,1.8,2471.022,13.29,0.059,160.4
2022-10-21T00:58:03,42.805,6.029,0.017,-0.039,0.004,103.0,103.0,100.0,13.4,1505.2,321.7,-0.7,1.8,2471.042,13.29,0.042,156.5
2022-10-21T01:04:03,42.805,6.029,0.025,-0.039,-0.025,103.0,105.0,103.0,13.4,1505.2,317.3,-0.8,1.8,2471.112,13.28,0.046,147.3
2022-10-21T01:07:03,42.805,6.029,-0.016,-0.042,-0.021,102.0,103.0,101.0,13.4,1505.2,327.6,-0.8,1.8,2471.088,13.28,0.044,200.9
2022-10-21T01:10:03,42.805,6.029,0.024,-0.044,0.013,104.0,103.0,101.0,13.3,1505.2,329.8,-0.8,1.8,2471.086,13.28,0.05,151.4
2022-10-21T01:13:03,42.805,6.029,0.04,-0.017,0.027,104.0,102.0,100.0,13.4,1505.2,324.1,-0.8,1.8,2471.059,13.28,0.043,113.0
2022-10-21T01:16:03,42.805,6.029,0.005,-0.041,-0.02,102.0,103.0,101.0,13.3,1505.2,329.6,-0.7,1.8,2471.082,13.28,0.041,173.0
2022-10-21T01:19:03,42.805,6.029,0.015,-0.029,0.0,103.0,103.0,100.0,13.4,1505.2,326.1,-0.8,1.8,2471.043,13.28,0.032,152.6
2022-10-21T01:22:03,42.805,6.029,0.007,-0.042,-0.023,105.0,103.0,100.0,13.4,1505.2,331.0,-0.7,1.9,2471.052,13.29,0.042,170.5
2022-10-21T01:25:03,42.805,6.029,0.004,-0.039,-0.015,103.0,102.0,101.0,13.3,1505.2,323.7,-0.7,1.8,2471.022,13.29,0.039,174.1
2022-10-21T01:28:03,42.805,6.029,-0.002,-0.027,-0.029,102.0,103.0,102.0,13.4,1505.2,322.0,-0.8,1.8,2471.067,13.29,0.027,184.2
2022-10-21T01:31:03,42.805,6.029,-0.002,-0.037,-0.008,102.0,102.0,101.0,13.4,1505.2,321.8,-0.7,1.8,2471.071,13.29,0.037,183.1
2022-10-21T01:34:03,42.805,6.029,0.009,-0.042,-0.008,103.0,103.0,101.0,13.4,1505.2,318.4,-0.7,1.8,2471.059,13.29,0.042,167.9
2022-10-21T01:37:03,42.805,6.029,-0.004,-0.028,-0.033,103.0,102.0,101.0,13.4,1505.2,330.6,-0.7,1.8,2471.068,13.29,0.028,188.1
2022-10-21T01:40:03,42.805,6.029,0.008,-0.035,-0.008,102.0,103.0,101.0,13.3,1505.2,323.4,-0.8,1.8,2471.075,13.29,0.035,167.1
2022-10-21T01:43:03,42.805,6.029,0.014,-0.038,-0.023,102.0,103.0,101.0,13.3,1505.2,322.4,-0.8,1.8,2471.034,13.29,0.04,159.8
2022-10-21T01:46:03,42.805,6.029,0.009,-0.026,0.013,103.0,103.0,100.0,13.4,1505.2,319.5,-0.8,1.8,2471.034,13.29,0.027,160.9
2022-10-21T01:49:03,42.805,6.029,-0.009,-0.05,-0.035,102.0,102.0,101.0,13.3,1505.2,328.2,-0.8,1.8,2471.056,13.29,0.05,190.2
2022-10-21T01:52:03,42.805,6.029,0.0,-0.033,0.001,102.0,104.0,101.0,13.4,1505.2,329.5,-0.8,1.9,2471.057,13.29,0.033,180.0
2022-10-21T01:55:03,42.805,6.029,0.004,-0.048,0.017,104.0,101.0,101.0,13.4,1505.2,322.8,-0.7,1.8,2471.081,13.29,0.048,175.2
2022-10-21T01:58:03,42.805,6.029,0.007,-0.045,0.002,104.0,102.0,100.0,13.3,1505.2,326.3,-0.8,1.8,2471.05,13.29,0.045,171.2
2022-10-21T02:04:03,42.805,6.029,0.0,-0.015,-0.012,102.0,103.0,101.0,13.4,1505.2,330.1,-0.7,1.8,2471.1,13.28,0.015,180.0
2022-10-21T02:07:03,42.805,6.029,0.009,-0.051,-0.005,102.0,103.0,100.0,13.4,1505.2,322.5,-0.7,1.8,2471.098,13.28,0.051,170.0
2022-10-21T02:10:03,42.805,6.029,0.0,-0.042,0.019,102.0,102.0,101.0,13.4,1505.2,322.3,-0.8,1.8,2471.107,13.28,0.042,180.0
2022-10-21T02:13:03,42.805,6.029,0.02,-0.053,0.005,104.0,107.0,99.0,13.3,1505.2,323.1,-0.8,1.8,2471.096,13.28,0.056,159.3
2022-10-21T02:16:03,42.805,6.029,-0.004,-0.026,0.008,103.0,103.0,100.0,13.4,1505.2,322.2,-0.8,1.8,2471.126,13.28,0.026,188.7
2022-10-21T02:19:03,42.805,6.029,0.009,-0.045,-0.001,103.0,102.0,100.0,13.4,1505.2,329.2,-0.8,1.8,2471.118,13.28,0.045,168.7
2022-10-21T02:22:03,42.805,6.029,0.004,-0.031,-0.003,103.0,102.0,102.0,13.3,1505.2,320.8,-0.8,1.8,2471.115,13.28,0.031,172.7
2022-10-21T02:25:03,42.805,6.029,0.003,-0.061,-0.028,103.0,103.0,101.0,13.3,1505.2,327.3,-0.8,1.8,2471.092,13.29,0.061,177.2
2022-10-21T02:28:03,42.805,6.029,0.012,-0.053,-0.02,104.0,102.0,101.0,13.4,1505.2,326.7,-0.8,1.8,2471.06,13.29,0.054,167.2
2022-10-21T02:31:03,42.805,6.029,-0.015,-0.049,-0.013,103.0,103.0,101.0,13.3,1505.2,330.7,-0.8,1.8,2471.098,13.29,0.051,197.0
2022-10-21T02:34:03,42.805,6.029,-0.002,-0.031,-0.021,102.0,103.0,101.0,13.4,1505.2,317.1,-0.7,1.8,2471.094,13.29,0.031,183.7
2022-10-21T02:37:03,42.805,6.029,-0.004,-0.044,-0.041,103.0,103.0,100.0,13.4,1505.2,332.4,-0.7,1.8,2471.05,13.29,0.044,185.2
2022-10-21T02:40:03,42.805,6.029,-0.016,-0.042,-0.007,103.0,103.0,101.0,13.4,1505.2,333.1,-0.8,1.8,2471.102,13.29,0.044,200.9
2022-10-21T02:43:03,42.805,6.029,0.023,-0.029,0.003,104.0,102.0,102.0,13.4,1505.2,322.2,-0.7,1.8,2471.067,13.29,0.037,141.6
2022-10-21T02:46:03,42.805,6.029,0.006,-0.045,-0.012,104.0,103.0,100.0,13.4,1505.2,325.1,-0.8,1.8,2471.075,13.29,0.045,172.4
2022-10-21T02:49:03,42.805,6.029,0.025,-0.052,-0.031,102.0,102.0,103.0,13.4,1505.2,322.2,-0.7,1.8,2471.067,13.29,0.057,154.3
2022-10-21T02:52:03,42.805,6.029,0.005,-0.048,-0.011,103.0,102.0,101.0,13.4,1505.2,318.7,-0.8,1.8,2471.116,13.29,0.048,174.1
2022-10-21T02:55:03,42.805,6.029,-0.002,-0.034,0.006,103.0,103.0,101.0,13.4,1505.2,330.8,-0.8,1.8,2471.093,13.29,0.034,183.4
2022-10-21T02:58:03,42.805,6.029,0.01,-0.033,0.007,102.0,102.0,102.0,13.4,1505.2,325.5,-0.7,1.8,2471.051,13.29,0.034,163.1
2022-10-21T03:04:03,42.805,6.029,0.005,-0.017,0.0,103.0,103.0,100.0,13.3,1505.2,327.0,-0.8,1.8,2471.149,13.28,0.017,163.6
2022-10-21T03:07:03,42.805,6.029,0.0,-0.05,-0.034,103.0,103.0,100.0,13.4,1505.2,321.6,-0.7,1.8,2471.137,13.28,0.05,180.0
2022-10-21T03:10:03,42.805,6.029,0.017,-0.029,-0.018,103.0,102.0,102.0,13.4,1505.2,325.0,-0.7,1.8,2471.123,13.28,0.033,149.6
2022-10-21T03:13:03,42.805,6.029,0.003,-0.027,-0.029,102.0,102.0,102.0,13.4,1505.2,331.0,-0.8,1.8,2471.123,13.28,0.027,173.7
2022-10-21T03:16:03,42.805,6.029,0.008,-0.024,0.02,104.0,104.0,101.0,13.3,1505.2,320.4,-0.7,1.8,2471.11,13.28,0.025,161.6
2022-10-21T03:19:03,42.805,6.029,-0.001,-0.038,0.001,103.0,102.0,101.0,13.4,1505.2,332.0,-0.7,1.8,2471.123,13.28,0.038,181.5
2022-10-21T03:22:03,42.805,6.029,0.007,-0.055,-0.048,103.0,102.0,101.0,13.4,1505.2,318.7,-0.7,1.8,2471.128,13.29,0.055,172.7
2022-10-21T03:25:03,42.805,6.029,0.013,-0.044,-0.019,103.0,103.0,101.0,13.4,1505.2,331.7,-0.8,1.8,2471.123,13.29,0.045,163.5
2022-10-21T03:28:03,42.805,6.029,0.029,-0.05,-0.012,104.0,103.0,101.0,13.4,1505.2,320.5,-0.8,1.8,2471.104,13.29,0.057,149.9
2022-10-21T03:31:03,42.805,6.029,-0.017,-0.042,-0.036,103.0,103.0,101.0,13.4,1505.2,318.2,-0.7,1.8,2471.069,13.29,0.045,202.0
2022-10-21T03:34:03,42.805,6.029,-0.003,-0.036,0.037,103.0,103.0,101.0,13.4,1505.2,322.0,-0.8,1.8,2471.099,13.29,0.036,184.8
2022-10-21T03:37:03,42.805,6.029,0.023,-0.054,-0.022,103.0,103.0,101.0,13.4,1505.2,318.8,-0.7,1.8,2471.125,13.29,0.058,156.9
2022-10-21T03:40:03,42.805,6.029,-0.018,-0.028,-0.018,103.0,103.0,102.0,13.4,1505.2,328.2,-0.8,1.8,2471.095,13.29,0.033,212.7
2022-10-21T03:43:03,42.805,6.029,0.021,-0.047,-0.055,104.0,103.0,101.0,13.4,1505.2,319.1,-0.8,1.8,2471.087,13.29,0.051,155.9
2022-10-21T03:46:03,42.805,6.029,-0.015,-0.019,-0.017,102.0,102.0,102.0,13.4,1505.2,333.7,-0.7,1.8,2471.124,13.29,0.024,218.3
2022-10-21T03:49:03,42.805,6.029,-0.014,-0.032,-0.003,103.0,102.0,101.0,13.4,1505.2,325.2,-0.7,1.8,2471.071,13.29,0.034,203.6
2022-10-21T03:52:03,42.805,6.029,-0.012,-0.034,-0.014,103.0,103.0,100.0,13.4,1505.2,333.1,-0.7,1.8,2471.09,13.29,0.036,199.4
2022-10-21T03:55:03,42.805,6.029,0.006,-0.027,-0.002,103.0,102.0,100.0,13.4,1505.2,324.1,-0.7,1.8,2471.121,13.29,0.027,167.5
2022-10-21T03:58:03,42.805,6.029,0.009,-0.034,-0.007,101.0,102.0,101.0,13.4,1505.2,321.2,-0.8,1.8,2471.122,13.29,0.035,165.2
2022-10-21T04:04:03,42.805,6.029,-0.002,-0.015,-0.003,103.0,102.0,102.0,13.4,1505.2,330.1,-0.7,1.8,2471.164,13.28,0.015,187.6
2022-10-21T04:07:03,42.805,6.029,-0.019,-0.035,-0.041,102.0,102.0,101.0,13.3,1505.2,328.9,-0.8,1.8,2471.103,13.28,0.039,208.5
2022-10-21T04:10:03,42.805,6.029,-0.014,-0.021,-0.024,103.0,101.0,101.0,13.4,1505.2,321.8,-0.8,1.8,2471.127,13.28,0.025,213.7
2022-10-21T04:13:03,42.805,6.029,0.002,-0.035,-0.014,102.0,102.0,101.0,13.4,1505.2,321.7,-0.8,1.8,2471.129,13.28,0.035,176.7
2022-10-21T04:16:03,42.805,6.029,0.017,-0.029,0.013,103.0,102.0,100.0,13.4,1505.2,326.1,-0.8,1.8,2471.124,13.28,0.033,149.6
2022-10-21T04:19:03,42.805,6.029,-0.001,-0.043,-0.014,102.0,102.0,101.0,13.3,1505.2,334.3,-0.8,1.8,2471.107,13.28,0.043,181.3
2022-10-21T04:22:03,42.805,6.029,0.022,-0.048,-0.001,103.0,102.0,100.0,13.4,1505.2,318.8,-0.7,1.8,2471.122,13.29,0.052,155.4
2022-10-21T04:25:03,42.805,6.029,-0.009,-0.049,-0.015,102.0,101.0,101.0,13.4,1505.2,323.2,-0.7,1.8,2471.114,13.29,0.049,190.4
2022-10-21T04:28:03,42.805,6.029,0.024,-0.056,-0.023,102.0,101.0,101.0,13.4,1505.2,323.6,-0.8,1.9,2471.061,13.29,0.06,156.8
2022-10-21T04:31:03,42.805,6.029,0.0,-0.053,-0.017,101.0,102.0,100.0,13.4,1505.2,321.7,-0.7,1.8,2471.092,13.29,0.053,180.0
2022-10-21T04:34:03,42.805,6.029,0.012,-0.041,-0.024,102.0,102.0,101.0,13.3,1505.2,323.1,-0.7,1.8,2471.079,13.29,0.042,163.7
2022-10-21T04:37:03,42.805,6.029,-0.012,-0.019,-0.021,102.0,102.0,101.0,13.3,1505.2,322.6,-0.8,1.8,2471.134,13.29,0.022,212.3
2022-10-21T04:40:03,42.805,6.029,0.01,-0.048,-0.037,103.0,102.0,100.0,13.4,1505.2,320.4,-0.8,1.9,2471.088,13.29,0.049,168.2
2022-10-21T04:43:03,42.805,6.029,-0.019,-0.046,-0.015,101.0,103.0,100.0,13.3,1505.2,328.2,-0.7,1.8,2471.13,13.29,0.049,202.4
2022-10-21T04:46:03,42.805,6.029,0.001,-0.036,-0.016,102.0,100.0,102.0,13.3,1505.2,325.7,-0.8,1.8,2471.105,13.29,0.036,178.4
2022-10-21T04:49:03,42.805,6.029,-0.004,-0.037,0.008,103.0,101.0,101.0,13.4,1505.2,327.0,-0.8,1.8,2471.104,13.29,0.037,186.2
2022-10-21T04:52:03,42.805,6.029,0.019,-0.055,-0.024,102.0,102.0,101.0,13.3,1505.2,322.4,-0.8,1.8,2471.119,13.29,0.058,160.9
2022-10-21T04:55:03,42.805,6.029,-0.003,-0.042,-0.024,102.0,102.0,100.0,13.4,1505.2,327.6,-0.8,1.8,2471.1,13.29,0.042,184.1
2022-10-21T04:58:03,42.805,6.029,-0.016,-0.015,-0.022,103.0,102.0,100.0,13.3,1505.2,326.9,-0.8,1.8,2471.101,13.29,0.021,226.9
2022-10-21T05:04:03,42.805,6.029,-0.005,-0.028,-0.026,103.0,101.0,99.0,13.4,1505.2,331.0,-0.8,1.8,2471.138,13.28,0.028,190.1
2022-10-21T05:07:03,42.805,6.029,-0.003,-0.032,-0.021,103.0,101.0,100.0,13.4,1505.2,323.1,-0.8,1.8,2471.151,13.28,0.032,185.4
2022-10-21T05:10:03,42.805,6.029,0.013,-0.059,0.023,103.0,102.0,100.0,13.4,1505.2,329.0,-0.8,1.8,2471.185,13.28,0.06,167.6
2022-10-21T05:13:03,42.805,6.029,-0.014,-0.048,-0.037,102.0,102.0,101.0,13.3,1505.2,327.6,-0.8,1.8,2471.136,13.28,0.05,196.3
2022-10-21T05:16:03,42.805,6.029,-0.001,-0.021,0.005,101.0,102.0,101.0,13.4,1505.2,324.2,-0.8,1.8,2471.096,13.28,0.021,182.7
2022-10-21T05:19:03,42.805,6.029,0.006,-0.025,-0.001,103.0,101.0,100.0,13.4,1505.2,330.8,-0.8,1.8,2471.094,13.28,0.025,166.5
2022-10-21T05:22:03,42.805,6.029,-0.012,-0.052,-0.009,102.0,101.0,100.0,13.3,1505.2,327.0,-0.8,1.8,2471.131,13.29,0.053,193.0
2022-10-21T05:25:03,42.805,6.029,-0.03,-0.031,-0.044,102.0,102.0,100.0,13.4,1505.2,333.1,-0.8,1.8,2471.09,13.29,0.043,224.1
2022-10-21T05:28:03,42.805,6.029,-0.005,-0.027,-0.033,101.0,102.0,100.0,13.3,1505.2,318.8,-0.8,1.8,2471.092,13.29,0.027,190.5
2022-10-21T05:31:03,42.805,6.029,0.007,-0.034,-0.01,102.0,102.0,101.0,13.4,1505.2,318.3,-0.8,1.8,2471.124,13.29,0.034,168.4
2022-10-21T05:34:03,42.805,6.029,0.011,-0.032,0.006,102.0,102.0,100.0,13.3,1505.2,322.1,-0.7,1.8,2471.072,13.29,0.033,161.0
2022-10-21T05:37:03,42.805,6.029,0.015,-0.012,0.021,103.0,102.0,101.0,13.4,1505.2,333.7,-0.8,1.9,2471.115,13.29,0.019,128.7
2022-10-21T05:40:03,42.805,6.029,-0.012,-0.047,-0.042,102.0,101.0,100.0,13.4,1505.2,331.8,-0.8,1.8,2471.073,13.29,0.048,194.3
2022-10-21T05:43:03,42.805,6.029,0.012,-0.035,0.009,102.0,102.0,101.0,13.4,1505.2,329.0,-0.7,1.8,2471.09,13.29,0.037,161.1
2022-10-21T05:46:03,42.805,6.029,-0.003,-0.009,0.026,100.0,102.0,101.0,13.4,1505.2,333.1,-0.8,1.8,2471.1,13.29,0.009,198.4
2022-10-21T05:49:03,42.805,6.029,0.036,-0.045,-0.002,102.0,102.0,100.0,13.3,1505.2,321.8,-0.8,1.8,2471.089,13.29,0.057,141.3
2022-10-21T05:52:03,42.805,6.029,0.003,-0.015,-0.013,102.0,101.0,101.0,13.4,1505.2,329.4,-0.8,1.8,2471.095,13.29,0.015,168.7
2022-10-21T05:55:03,42.805,6.029,-0.016,-0.017,0.0,103.0,102.0,100.0,13.4,1505.2,330.8,-0.8,1.8,2471.118,13.29,0.023,223.3
2022-10-21T05:58:03,42.805,6.029,-0.009,-0.032,-0.001,102.0,102.0,100.0,13.4,1505.2,331.3,-0.7,1.8,2471.094,13.29,0.033,195.7
2022-10-21T06:04:03,42.805,6.029,0.008,-0.036,0.006,102.0,101.0,101.0,13.4,1505.2,321.8,-0.8,1.8,2471.114,13.28,0.036,167.5
2022-10-21T06:07:03,42.805,6.029,0.001,-0.034,0.024,102.0,102.0,101.0,13.4,1505.2,331.3,-0.7,1.8,2471.117,13.28,0.034,178.3
2022-10-21T06:10:03,42.805,6.029,0.006,-0.048,-0.032,101.0,101.0,101.0,13.4,1505.2,326.6,-0.8,1.8,2471.136,13.28,0.048,172.9
2022-10-21T06:13:03,42.805,6.029,0.022,-0.05,-0.02,102.0,103.0,100.0,13.4,1505.2,326.1,-0.8,1.8,2471.152,13.28,0.054,156.3
2022-10-21T06:16:03,42.805,6.029,0.019,-0.028,-0.015,102.0,102.0,101.0,13.4,1505.2,328.9,-0.7,1.8,2471.135,13.28,0.033,145.8
2022-10-21T06:19:03,42.805,6.029,-0.013,-0.056,-0.025,102.0,101.0,101.0,13.3,1505.2,332.1,-0.8,1.8,2471.157,13.28,0.057,193.1
2022-10-21T06:22:03,42.805,6.029,-0.005,-0.033,0.017,103.0,102.0,101.0,13.4,1505.2,331.9,-0.8,1.8,2471.101,13.29,0.033,188.6
2022-10-21T06:25:03,42.805,6.029,0.0,-0.035,-0.005,102.0,102.0,100.0,13.3,1505.2,325.7,-0.8,1.8,2471.12,13.29,0.035,180.0
2022-10-21T06:28:03,42.805,6.029,0.0,-0.013,0.025,101.0,102.0,101.0,13.4,1505.2,323.0,-0.8,1.8,2471.101,13.29,0.013,180.0
2022-10-21T06:31:03,42.805,6.029,0.001,-0.021,0.007,102.0,102.0,101.0,13.4,1505.2,317.1,-0.8,1.8,2471.113,13.29,0.021,177.3
2022-10-21T06:34:03,42.805,6.029,0.01,-0.024,0.006,102.0,102.0,100.0,13.4,1505.2,321.7,-0.8,1.8,2471.094,13.29,0.026,157.4
2022-10-21T06:37:03,42.805,6.029,0.023,-0.047,-0.006,103.0,101.0,100.0,13.4,1505.2,323.1,-0.8,1.8,2471.108,13.29,0.052,153.9
2022-10-21T06:40:03,42.805,6.029,0.007,-0.038,0.006,103.0,101.0,100.0,13.4,1505.2,326.6,-0.8,1.8,2471.123,13.29,0.038,169.6
2022-10-21T06:43:03,42.805,6.029,0.01,-0.049,-0.013,102.0,102.0,101.0,13.4,1505.2,326.1,-0.7,1.8,2471.075,13.29,0.05,168.5
2022-10-21T06:46:03,42.805,6.029,0.013,-0.03,0.007,102.0,103.0,100.0,13.3,1505.2,328.0,-0.7,1.8,2471.07,13.29,0.032,156.6
2022-10-21T06:49:03,42.805,6.029,0.024,-0.03,0.046,103.0,101.0,102.0,13.3,1505.2,320.1,-0.8,1.8,2471.064,13.29,0.038,141.3
2022-10-21T06:52:03,42.805,6.029,-0.012,-0.025,-0.009,101.0,101.0,101.0,13.3,1505.2,327.5,-0.8,1.9,2471.083,13.29,0.027,205.6
2022-10-21T06:55:03,42.805,6.029,0.009,-0.013,-0.016,102.0,102.0,100.0,13.4,1505.2,328.8,-0.8,1.8,2471.057,13.29,0.015,145.3
2022-10-21T06:58:03,42.805,6.029,0.002,-0.034,0.003,103.0,102.0,99.0,13.4,1505.2,328.4,-0.7,1.8,2471.09,13.29,0.034,176.6
2022-10-21T07:04:03,42.805,6.029,0.031,-0.03,-0.011,102.0,101.0,101.0,13.4,1505.2,321.0,-0.8,1.8,2471.149,13.28,0.043,134.1
2022-10-21T07:07:03,42.805,6.029,0.0,-0.029,-0.003,102.0,103.0,100.0,13.4,1505.2,329.0,-0.8,1.8,2471.12,13.28,0.028,180.0
2022-10-21T07:10:03,42.805,6.029,0.009,-0.025,0.003,101.0,102.0,100.0,13.4,1505.2,322.7,-0.7,1.8,2471.136,13.28,0.026,160.2
2022-10-21T07:13:03,42.805,6.029,0.0,-0.039,-0.006,103.0,101.0,101.0,13.4,1505.2,329.6,-0.8,1.8,2471.085,13.28,0.039,180.0
2022-10-21T07:16:03,42.805,6.029,0.011,-0.015,0.031,103.0,103.0,100.0,13.3,1505.2,321.0,-0.8,1.8,2471.083,13.28,0.018,143.7
2022-10-21T07:19:03,42.805,6.029,0.019,-0.036,-0.013,103.0,101.0,101.0,13.3,1505.2,317.5,-0.8,1.9,2471.076,13.29,0.04,152.2
2022-10-21T07:22:03,42.805,6.029,0.014,-0.032,-0.011,102.0,101.0,101.0,13.4,1505.2,322.6,-0.8,1.8,2471.079,13.29,0.034,156.4
2022-10-21T07:25:03,42.805,6.029,0.002,-0.039,-0.003,102.0,103.0,101.0,13.4,1505.2,330.6,-0.8,1.8,2471.077,13.29,0.039,177.1
2022-10-21T07:28:03,42.805,6.029,0.019,-0.034,-0.027,103.0,102.0,100.0,13.4,1505.2,324.1,-0.7,1.8,2471.067,13.29,0.038,150.8
2022-10-21T07:31:03,42.805,6.029,-0.007,-0.055,-0.012,102.0,102.0,101.0,13.4,1505.2,327.9,-0.8,1.8,2471.083,13.29,0.055,187.3
2022-10-21T07:34:03,42.805,6.029,0.01,-0.056,-0.011,102.0,101.0,100.0,13.4,1505.2,327.3,-0.8,1.9,2471.071,13.29,0.056,169.9
2022-10-21T07:37:03,42.805,6.029,-0.006,-0.048,-0.027,102.0,102.0,100.0,13.4,1505.2,319.6,-0.8,1.8,2471.107,13.29,0.048,187.1
2022-10-21T07:40:03,42.805,6.029,0.008,-0.03,-0.026,102.0,102.0,99.0,13.3,1505.2,327.7,-0.8,1.8,2471.053,13.29,0.031,165.1
2022-10-21T07:43:03,42.805,6.029,-0.024,-0.018,-0.021,102.0,101.0,100.0,13.3,1505.2,322.2,-0.7,1.8,2471.099,13.29,0.03,233.1
2022-10-21T07:46:03,42.805,6.029,0.019,-0.034,-0.005,103.0,101.0,101.0,13.4,1505.2,319.3,-0.7,1.8,2471.093,13.29,0.038,150.8
2022-10-21T07:49:03,42.805,6.029,0.012,-0.038,-0.001,102.0,102.0,100.0,13.4,1505.2,329.9,-0.7,1.8,2471.08,13.29,0.039,162.5
2022-10-21T07:52:03,42.805,6.029,0.015,-0.043,-0.021,102.0,101.0,101.0,13.3,1505.2,325.7,-0.7,1.9,2471.044,13.29,0.045,160.8
2022-10-21T07:55:03,42.805,6.029,0.036,-0.062,-0.001,102.0,102.0,101.0,13.3,1505.2,320.0,-0.8,1.8,2471.075,13.29,0.071,149.9
2022-10-21T07:58:03,42.805,6.029,0.003,-0.028,0.013,103.0,102.0,100.0,13.3,1505.2,319.5,-0.8,1.8,2471.064,13.29,0.028,173.9
2022-10-21T08:04:03,42.805,6.029,0.008,-0.04,0.01,103.0,102.0,101.0,13.3,1505.2,332.7,-0.7,1.8,2471.096,13.28,0.04,168.7
2022-10-21T08:07:03,42.805,6.029,0.015,-0.044,-0.038,101.0,103.0,101.0,13.3,1505.2,328.4,-0.8,1.8,2471.101,13.28,0.046,161.2
2022-10-21T08:10:03,42.805,6.029,0.015,-0.043,-0.014,103.0,103.0,101.0,13.4,1505.2,321.1,-0.8,1.8,2471.108,13.28,0.045,160.8
2022-10-21T08:13:03,42.805,6.029,0.002,-0.03,-0.015,101.0,102.0,101.0,13.4,1505.2,327.4,-0.7,1.8,2471.083,13.28,0.03,176.2
2022-10-21T08:16:03,42.805,6.029,0.007,-0.033,-0.015,102.0,102.0,100.0,13.4,1505.2,319.1,-0.8,1.8,2471.119,13.28,0.033,168.0
2022-10-21T08:19:03,42.805,6.029,0.022,-0.028,-0.012,101.0,102.0,102.0,13.4,1505.2,327.6,-0.7,1.9,2471.075,13.29,0.035,141.8
2022-10-21T08:22:03,42.805,6.029,0.011,-0.035,-0.013,102.0,101.0,100.0,13.4,1505.2,320.8,-0.8,1.8,2471.061,13.29,0.036,162.6
2022-10-21T08:25:03,42.805,6.029,-0.005,-0.026,-0.017,103.0,102.0,101.0,13.4,1505.2,324.7,-0.8,1.8,2471.075,13.29,0.026,190.9
2022-10-21T08:28:03,42.805,6.029,0.011,-0.036,0.007,103.0,102.0,100.0,13.4,1505.2,330.5,-0.8,1.8,2471.045,13.29,0.037,163.0
2022-10-21T08:31:03,42.805,6.029,0.014,-0.033,-0.012,103.0,103.0,100.0,13.4,1505.2,322.6,-0.7,1.8,2471.063,13.29,0.035,157.0
2022-10-21T08:34:03,42.805,6.029,0.008,-0.02,0.008,102.0,103.0,100.0,13.3,1505.2,327.0,-0.8,1.8,2471.115,13.29,0.021,158.2
2022-10-21T08:37:03,42.805,6.029,0.0,-0.029,-0.011,102.0,102.0,101.0,13.4,1505.2,322.6,-0.7,1.8,2471.074,13.29,0.028,180.0
2022-10-21T08:40:03,42.805,6.029,0.005,-0.028,-0.009,102.0,103.0,100.0,13.3,1505.2,333.7,-0.8,1.8,2471.037,13.29,0.028,169.9
2022-10-21T08:43:03,42.805,6.029,-0.01,-0.024,0.011,102.0,102.0,101.0,13.4,1505.2,323.5,-0.8,1.8,2471.028,13.29,0.026,202.6
2022-10-21T08:46:03,42.805,6.029,0.01,-0.028,-0.015,103.0,102.0,100.0,13.3,1505.2,326.7,-0.8,1.8,2471.047,13.29,0.029,160.4
2022-10-21T08:49:03,42.805,6.029,0.011,-0.04,0.039,104.0,102.0,100.0,13.4,1505.2,334.7,-0.8,1.8,2471.028,13.29,0.041,164.6
2022-10-21T08:52:03,42.805,6.029,0.013,-0.051,-0.044,102.0,103.0,100.0,13.4,1505.2,330.3,-0.8,1.8,2471.078,13.29,0.052,165.7
2022-10-21T08:55:03,42.805,6.029,-0.004,-0.049,0.003,102.0,102.0,101.0,13.3,1505.2,330.8,-0.8,1.8,2471.051,13.29,0.049,184.7
2022-10-21T08:58:03,42.805,6.029,0.003,-0.029,-0.007,102.0,102.0,100.0,13.3,1505.2,332.1,-0.8,1.8,2471.05,13.29,0.029,174.1
2022-10-21T09:04:03,42.805,6.029,0.018,-0.013,0.002,102.0,103.0,100.0,13.4,1505.2,333.4,-0.8,1.8,2471.132,13.28,0.022,125.8
2022-10-21T09:07:03,42.805,6.029,0.014,-0.034,0.011,103.0,102.0,101.0,13.4,1505.2,327.9,-0.8,1.8,2471.085,13.28,0.036,157.6
2022-10-21T09:10:03,42.805,6.029,0.012,-0.034,-0.012,101.0,102.0,100.0,13.4,1505.2,329.3,-0.8,1.8,2471.131,13.28,0.036,160.6
2022-10-21T09:13:03,42.805,6.029,0.02,0.004,0.016,102.0,101.0,101.0,13.3,1505.2,326.1,-0.8,1.8,2471.058,13.28,0.02,78.7
2022-10-21T09:16:03,42.805,6.029,0.003,-0.056,-0.01,100.0,103.0,101.0,13.4,1505.2,327.5,-0.8,1.9,2471.089,13.28,0.056,176.9
2022-10-21T09:19:03,42.805,6.029,0.011,-0.037,0.0,103.0,102.0,101.0,13.3,1505.2,324.0,-0.8,1.8,2471.069,13.28,0.038,163.4
2022-10-21T09:22:03,42.805,6.029,0.026,-0.061,-0.017,102.0,102.0,100.0,13.3,1505.2,325.3,-0.7,1.8,2471.09,13.28,0.066,156.9
2022-10-21T09:25:03,42.805,6.029,0.01,-0.045,-0.045,104.0,101.0,100.0,13.4,1505.2,328.8,-0.7,1.8,2471.046,13.29,0.046,167.5
2022-10-21T09:28:03,42.805,6.029,0.007,-0.036,-0.019,100.0,102.0,101.0,13.4,1505.2,327.0,-0.8,1.8,2471.06,13.29,0.036,169.0
2022-10-21T09:31:03,42.805,6.029,0.011,-0.031,0.02,101.0,102.0,101.0,13.4,1505.2,329.9,-0.8,1.8,2471.065,13.29,0.032,160.5
2022-10-21T09:34:03,42.805,6.029,0.033,-0.043,-0.005,100.0,102.0,101.0,13.4,1505.2,321.8,-0.8,1.8,2471.053,13.29,0.054,142.5
2022-10-21T09:37:03,42.805,6.029,0.011,-0.036,0.003,102.0,101.0,100.0,13.4,1505.2,332.1,-0.8,1.8,2471.062,13.29,0.037,163.0
2022-10-21T09:40:03,42.805,6.029,-0.018,-0.031,-0.009,103.0,102.0,100.0,13.4,1505.2,328.7,-0.8,1.9,2471.058,13.29,0.035,210.1
2022-10-21T09:43:03,42.805,6.029,0.024,-0.038,0.003,103.0,103.0,100.0,13.4,1505.2,325.7,-0.8,1.8,2471.049,13.29,0.044,147.7
2022-10-21T09:46:03,42.805,6.029,0.009,-0.054,-0.032,102.0,100.0,101.0,13.4,1505.2,328.6,-0.8,1.8,2471.032,13.29,0.054,170.5
2022-10-21T09:49:03,42.805,6.029,0.024,-0.033,-0.024,101.0,102.0,100.0,13.3,1505.2,316.8,-0.8,1.8,2471.049,13.29,0.04,144.0
2022-10-21T09:52:03,42.805,6.029,0.032,-0.026,-0.014,101.0,101.0,101.0,13.4,1505.2,317.1,-0.8,1.8,2471.025,13.29,0.041,129.1
2022-10-21T09:55:03,42.805,6.029,0.018,-0.035,-0.006,102.0,101.0,100.0,13.4,1505.2,329.0,-0.8,1.8,2471.068,13.29,0.039,152.8